Location: Newark
(55.7083°N, 13.1992°E)
Time: 01:57:42
(UTC+00:00)

N. Korean satellite - Pass Details

Date: 25 January 2020
Orbit: 456 x 505 km, 97.2° (Epoch: 21 February)

Event Time Altitude Azimuth Distance (km) Brightness Sun altitude
Rises 04:06:18 0° 25° (NNE) 2,532 10.6 -25.9°
Reaches altitude 10° 04:08:48 10° 44° (NE) 1,658 9.8 -25.6°
Maximum altitude 04:11:26 19° 91° (E) 1,201 9.4 -25.2°
Drops below altitude 10° 04:14:04 10° 139° (SE) 1,668 9.7 -24.8°
Sets 04:16:35 0° 157° (SSE) 2,554 10.5 -24.5°
